User: anonymous   Login
Location: Steilacoom
(47.1700°N, 122.5700°W)
Time: 05:48:45
(UTC-08:00)
Language:

UNISAT 6 - Orbit

View from above orbital plane
View from above orbital plane
View from above satellite
View from above satellite

Ground track
Ground track

The orbit data is extracted from the following two-line orbital elements,

1 40012U 14033C   20024.75297770  .00000150  00000-0  29520-4 0  9998
2 40012  97.7282 246.5140 0059617 107.1996 253.5751 14.74059439301106
Epoch (UTC): 24 January 2020 18:04:17
Eccentricity: 0.0059617
inclination: 97.7282°
perigee height: 606 km
apogee height: 690 km
right ascension of ascending node: 246.5140°
argument of perigee: 107.1996°
revolutions per day: 14.74059439
mean anomaly at epoch: 253.5751°
orbit number at epoch: 30110

The dashed part of the orbit path shows where the satellite is in the earth's shadow,  

DLR